Regional Weather Roundup
Issued by NWS

Home | Current Version | Previous Version | Text Only | Print | Product List | Glossary Off
Versions: 1 2 3 4 5 6 7 8 9 10 11 12 13 14 15 16 17 18 19 20 21 22 23 24 25 26 27 28 29 30 31 32 33 34 35 36 37 38 39 40 41 42 43 44 45 46 47 48 49 50

000
ASUS43 KMKX 241621
RWRWI

WISCONSIN REGIONAL WEATHER ROUNDUP
NATIONAL WEATHER SERVICE MILWAUKEE/SULLIVAN WI
1100 AM CDT SAT JUN 24 2017

NOTE: "FAIR" INDICATES FEW OR NO CLOUDS BELOW 12,000 FEET WITH NO
SIGNIFICANT WEATHER AND/OR OBSTRUCTIONS TO VISIBILITY.

WIZ001-002-006>008-014>016-023>028-241700-
NORTHWEST WISCONSIN

CITY           SKY/WX    TMP DP  RH WIND       PRES   REMARKS
SUPERIOR ARPT  NOT AVBL
ASHLAND        CLOUDY    58  50  75 W9G18     29.91R
HAYWARD        CLOUDY    59  46  62 VRB7      29.93S
SIREN          CLOUDY    59  44  56 W10G17    29.96S
CUMBERLAND     CLOUDY    55  43  62 W13G18    29.97R
RICE LAKE      CLOUDY    59  46  60 W12G20    29.98R
CHETEK         CLOUDY    59  47  64 W8        29.97R
LADYSMITH      PTSUNNY   62  47  58 W12G17    29.95S
EAU CLAIRE     CLOUDY    62  40  44 W13G23    29.97R
MENOMONIE      PTSUNNY   61  41  47 W21G26    30.00R
NEW RICHMOND   PTSUNNY   61  39  44 W16       29.99S
OSCEOLA        MOSUNNY   62  42  47 W13G21    30.01F
$$

WIZ003>005-009-010-017-018-241700-
NORTH CENTRAL WISCONSIN

CITY           SKY/WX    TMP DP  RH WIND       PRES   REMARKS
MANITOWISH WTR CLOUDY    54  53  96 W6        29.90S
ARBOR VITAE    CLOUDY    57  53  86 NW5       29.90R
WOODRUFF       CLOUDY    57  53  86 NW5       29.90R
RHINELANDER    CLOUDY    57  51  80 W13       29.91R
EAGLE RIVER    CLOUDY    56  49  75 W9        29.89R
LAND O LAKES   CLOUDY    55  51  88 W5        29.91R
PHILLIPS       CLOUDY    57  48  72 W8        29.92R
TOMAHAWK       NOT AVBL
MEDFORD        MOSUNNY   59  44  58 W10G22    29.94R
MERRILL        CLOUDY    57  50  76 NW8       29.93S
$$

WIZ029-030-035-036-043>047-241700-
CENTRAL WISCONSIN

CITY           SKY/WX    TMP DP  RH WIND       PRES   REMARKS
WAUSAU         CLOUDY    59  48  67 NW12      29.91S
MOSINEE        CLOUDY    61  48  63 W16       29.94R
MARSHFIELD     MOSUNNY   62  42  47 NW15G24   29.94S
STEVENS POINT  CLOUDY    60  44  55 W10G21    29.94R
WAUPACA        CLOUDY    65  49  57 W10G20    29.93R
WAUTOMA        PTSUNNY   64  45  49 W15G26    29.95R
WISC RAPIDS    PTSUNNY   62  43  49 NW16G26   29.96R
CAMP DOUGLAS   PTSUNNY   63  46  55 W12       29.97R
$$

WIZ011>013-019>022-031-037>040-048>050-241700-
NORTHEAST WISCONSIN

CITY           SKY/WX    TMP DP  RH WIND       PRES   REMARKS
ANTIGO         CLOUDY    55  51  88 W10       29.92R
SHAWANO        CLOUDY    64  53  67 W10G16    29.89S
OCONTO         CLOUDY    65  55  68 W14       29.86S
STURGEON BAY     N/A     64  55  72 NW8         N/A
GREEN BAY      MOSUNNY   66  56  70 W16       29.88S
MANITOWOC      PTSUNNY   66  52  59 W17       29.89R
APPLETON       PTSUNNY   64  46  52 W17G23    29.89R
CLINTONVILLE   CLOUDY    63  50  63 W14G20    29.90R
OSHKOSH        MOSUNNY   65  48  54 W17G24    29.91R
$$

WIZ032>034-041-042-053>061-241700-
SOUTHWEST WISCONSIN

CITY           SKY/WX    TMP DP  RH WIND       PRES   REMARKS
LA CROSSE      PTSUNNY   68  45  43 NW14G22   30.00R
SPARTA         PTSUNNY   61  48  61 W14G21    29.99S
VIROQUA        MOSUNNY   62  49  62 W14       30.02R
BOSCOBEL       PTSUNNY   66  48  52 W12G20    30.01R
PRAIRIE DU CHI MOSUNNY   66  42  41 W14G20    30.03R
PLATTEVILLE    MOSUNNY   66  48  53 W18       30.03R
$$

WIZ056-057-062-063-064-067-068-241700-
SOUTH CENTRAL WISCONSIN

CITY           SKY/WX    TMP DP  RH WIND       PRES   REMARKS
REEDSBURG      PTSUNNY   62  47  56 NW9       29.97S
BARABOO/DELLS  CLOUDY    63  44  50 W9        29.98R
LONE ROCK      PTSUNNY   66  47  50 W14G21    29.98S
MINERAL POINT  PTSUNNY   64  52  63 W14G21    30.01R
MADISON        PTSUNNY   66  47  50 NW9       29.97R
MIDDLETON      MOSUNNY   68  49  51 W8G18     29.99R
WATERTOWN      PTSUNNY   66  50  56 W14       29.96R
MONROE         MOSUNNY   66  43  42 W13G21    30.00R
JANESVILLE     PTSUNNY   70  46  43 W12G17    29.97R
$$

WIZ051-052-058>065-066-070>072-241700-
SOUTHEAST WISCONSIN

CITY           SKY/WX    TMP DP  RH WIND       PRES   REMARKS
MILWAUKEE      MOSUNNY   70  49  47 W18G24    29.93R
WAUKESHA       MOSUNNY   64  48  55 W14G21    29.96R
MILWAUKEE/TIMM MOSUNNY   66  48  52 NW13G21   29.94R
RACINE         MOSUNNY   69  52  54 W14G23    29.96R
KENOSHA        MOSUNNY   68  53  58 W12G22    29.96R
FOND DU LAC    MOSUNNY   67  46  47 NW14G22   29.93R
SHEBOYGAN      MOSUNNY   66  54  65 W14G21    29.91R
WEST BEND      MOSUNNY   64  48  55 W15G24    29.93R
JUNEAU         PTSUNNY   64  48  55 W13G21    29.96R
$$

LSZ147-162-241700-
LAKE SUPERIOR

STATION/POSITION TIME  TEMP    WIND        PRES    WAVE
                       AIR SEA DIR/SP/G            HT/PER
                 (UTC) (F)     (DEG/KT/KT) (MB)    (FT/S)
W MID LAKE BUOY  1550   45 39  260/ 10/ 12 1011.2R   1/ 4
DEVILS ISLAND    1600   53     250/ 14/ 18 1012.0R
SAXON HARBOR     1530   58     250/  6/  9 1011.9S
$$

LMZ867-665-643>646-241700-
LAKE MICHIGAN

STATION/POSITION TIME  TEMP    WIND        PRES    WAVE
                       AIR SEA DIR/SP/G            HT/PER
                 (UTC) (F)     (DEG/KT/KT) (MB)    (FT/S)
CHAMBERS ISLAND  1540   65     270/  2/  6 1010.5R
S GREEN BAY BUOY 1600   63     270/ 10/ 14 1011.0
N MID LAKE BUOY  1550   58 57  280/  6/  6 1011.1R   1
NORTHPORT PIER   1540   62     330/  6/ 10 1010.5S
KEWAUNEE LAKESHO 1554   65     280/  7/ 12 1011.0R
SHEBOYGAN LAKESH 1600   65     270/ 14/ 18 1012.3R
PORT WASHINGTON  1540   69     310/  7/ 16 1013.5R
ATWATER BUOY     1509   63 59  280/ 12/ 14 1013.3R
MILWAUKEE LAKESH 1600   67     290/ 15/ 19   N/A
S MID LAKE BUOY  1550   62 61  290/  8/ 10 1013.7R   2/ 4
KENOSHA   LAKESH 1600   67     290/ 11/ 18 1013.9
$$

TC  - TEMPERATURE IN CELSIUS
VSB - VISIBILITY IN STATUTE MILES
WCI - WIND CHILL INDEX
HX  - HEAT INDEX




USA.gov is the U.S. government's official web portal to all federal, state and local government web resources and services.